Weather History for Richmond Hanover County, VA

Change the Weather History Date:

Friday, May 16, 2014

  Actual Average Record
Temperature  
Mean Temperature 65 °F -  
Max Temperature 73 °F 75 °F 92 °F (1962)
Min Temperature 57 °F 51 °F 34 °F (1955)
Growing Degree Days 15 (Base 50)    
Moisture  
Dew Point 59 °F    
Average Humidity 85    
Maximum Humidity 100    
Minimum Humidity 49    
Precipitation  
Precipitation 1.69 in - - ()
Sea Level Pressure  
Sea Level Pressure 29.85 in    
Wind  
Wind Speed 9 mph (WSW)    
Max Wind Speed 17 mph    
Max Gust Speed 33 mph    
Visibility 6 miles    
Events Rain    
Averages and records for this station are not official NWS values.
T = Trace of Precipitation, MM = Missing Value Source: NWS Daily Summary

Daily Weather History Graph

Daily Weather History Graph

Search for Another Location

Airport:

Trip Planner

Search our weather history database for the weather conditions in past years. The results will help you decide how hot, cold, wet, or windy it might be!

Date:

Astronomy

May. 16, 2014 Rise Set
Actual Time 5:59 AM EDT 8:13 PM EDT
Civil Twilight 5:29 AM EDT 8:42 PM EDT
Nautical Twilight 4:53 AM EDT 9:19 PM EDT
Astronomical Twilight 4:14 AM EDT 9:58 PM EDT
Moon 10:18 PM EDT (5/16) 7:39 AM EDT (5/16)
Length of Visible Light 15h 13m
Length of Day
14h 14m
Waning Gibbous, 95% of the Moon is Illuminated
May 16
Waning Gibbous
May 21
Last Quarter
May 28
New
Jun 5
First Quarter
Jun 13
Full

Hourly Weather History & Observations

Time (EDT) Temp. Dew Point Humidity Pressure Visibility Wind Dir Wind Speed Gust Speed Precip Events Conditions
12:54 AM 70.0 °F 68.0 °F 93% 29.87 in 6.0 mi Variable 5.8 mph 19.6 mph 0.06 in Rain Light Rain
1:32 AM 70.0 °F 68.0 °F 93% 29.85 in 6.0 mi ESE 11.5 mph 18.4 mph 0.02 in Rain Light Rain
1:54 AM 70.0 °F 68.0 °F 93% 29.83 in 6.0 mi ESE 9.2 mph - 0.04 in Rain Light Rain
2:05 AM 71.1 °F 68.0 °F 90% 29.83 in 6.0 mi SE 12.7 mph 21.9 mph 0.01 in Rain Light Rain
2:43 AM 71.1 °F 68.0 °F 90% 29.81 in 6.0 mi SE 9.2 mph 24.2 mph 0.05 in Rain Light Rain
2:54 AM 71.1 °F 68.0 °F 90% 29.80 in 5.0 mi SE 8.1 mph 26.5 mph 0.06 in Rain Light Rain
3:54 AM 71.1 °F 68.0 °F 90% 29.77 in 10.0 mi SSE 15.0 mph 27.6 mph 0.01 in   Overcast
4:36 AM 71.1 °F 68.0 °F 90% 29.77 in 10.0 mi SSE 12.7 mph 24.2 mph N/A   Overcast
4:44 AM 71.1 °F 68.0 °F 90% 29.77 in 8.0 mi SSE 13.8 mph 33.4 mph 0.01 in Rain Light Rain
4:54 AM 71.1 °F 68.0 °F 90% 29.78 in 6.0 mi SSE 15.0 mph 32.2 mph 0.02 in Rain Light Rain
5:09 AM 70.0 °F 68.0 °F 93% 29.79 in 2.5 mi SSW 13.8 mph 26.5 mph 0.06 in Rain Heavy Rain
5:13 AM 69.1 °F 68.0 °F 96% 29.79 in 1.2 mi WSW 15.0 mph 24.2 mph 0.24 in Rain Heavy Rain
5:15 AM 69.1 °F 66.9 °F 93% 29.78 in 0.8 mi West 11.5 mph 24.2 mph 0.36 in Rain Heavy Rain
5:36 AM 66.9 °F 66.0 °F 97% 29.80 in 1.0 mi WSW 8.1 mph - 0.98 in Rain Heavy Rain
5:41 AM 66.0 °F 64.0 °F 93% 29.81 in 2.0 mi West 17.3 mph 21.9 mph 1.01 in Rain Heavy Rain
5:50 AM 62.6 °F 62.6 °F 100% 29.81 in 1.8 mi West 15.0 mph - 1.10 in Rain Heavy Rain
5:54 AM 63.0 °F 61.0 °F 93% 29.81 in 1.8 mi West 13.8 mph 21.9 mph 1.14 in Rain Heavy Rain
6:04 AM 63.0 °F 61.0 °F 93% 29.82 in 2.5 mi WNW 10.4 mph - 0.05 in Rain Heavy Rain
6:12 AM 63.0 °F 61.0 °F 93% 29.83 in 5.0 mi WNW 6.9 mph - 0.06 in Rain Light Rain
6:24 AM 62.1 °F 60.1 °F 93% 29.84 in 4.0 mi WNW 6.9 mph - 0.07 in Rain Rain
6:33 AM 62.1 °F 60.1 °F 93% 29.84 in 3.0 mi WNW 5.8 mph - 0.09 in Rain Rain
6:37 AM 62.1 °F 60.1 °F 93% 29.84 in 1.8 mi West 3.5 mph - 0.11 in Rain Heavy Rain
6:45 AM 62.1 °F 60.1 °F 93% 29.84 in 1.2 mi West 5.8 mph - 0.14 in Rain Rain
6:51 AM 62.6 °F 60.8 °F 94% 29.85 in 1.8 mi West 4.6 mph - 0.15 in Rain Rain
6:54 AM 62.1 °F 60.1 °F 93% 29.85 in 1.8 mi WSW 6.9 mph - 0.16 in Rain Light Rain
7:03 AM 61.0 °F 60.1 °F 97% 29.86 in 1.0 mi West 8.1 mph - 0.06 in Rain Heavy Rain
7:08 AM 61.0 °F 60.1 °F 97% 29.86 in 1.5 mi West 6.9 mph - 0.06 in Rain Light Rain
7:16 AM 61.0 °F 59.0 °F 93% 29.86 in 2.0 mi WNW 8.1 mph - 0.10 in Rain Heavy Rain
7:18 AM 61.0 °F 59.0 °F 93% 29.86 in 1.8 mi West 9.2 mph - 0.11 in Rain Heavy Rain
7:22 AM 61.0 °F 59.0 °F 93% 29.86 in 2.0 mi WNW 8.1 mph - 0.11 in Rain Rain
7:30 AM 61.0 °F 59.0 °F 93% 29.86 in 5.0 mi WNW 6.9 mph - 0.12 in Rain Light Rain
7:54 AM 61.0 °F 59.0 °F 93% 29.86 in 8.0 mi Variable 6.9 mph - 0.12 in Rain Light Rain
8:05 AM 59.0 °F 57.9 °F 96% 29.87 in 1.8 mi Variable 4.6 mph - 0.03 in Rain Rain
8:22 AM 57.9 °F 55.9 °F 93% 29.88 in 2.5 mi North 9.2 mph - 0.07 in Rain Rain
8:30 AM 57.0 °F 55.0 °F 93% 29.88 in 2.5 mi Variable 6.9 mph - 0.08 in Rain Light Rain
8:37 AM 57.0 °F 55.0 °F 93% 29.88 in 5.0 mi North 6.9 mph - 0.08 in Rain Light Rain
8:45 AM 57.0 °F 55.0 °F 93% 29.88 in 7.0 mi Variable 6.9 mph - 0.08 in   Overcast
8:50 AM 57.2 °F 55.4 °F 94% 29.88 in 7.0 mi NNW 6.9 mph - 0.08 in   Overcast
8:54 AM 57.0 °F 55.0 °F 93% 29.88 in 6.0 mi NNW 5.8 mph - 0.08 in Rain Light Rain
9:11 AM 57.0 °F 55.0 °F 93% 29.88 in 10.0 mi Variable 3.5 mph - 0.00 in   Overcast
9:50 AM 59.0 °F 55.4 °F 88% 29.89 in 10.0 mi Variable 4.6 mph - 0.00 in   Overcast
9:54 AM 59.0 °F 55.9 °F 90% 29.89 in 10.0 mi Variable 4.6 mph - 0.00 in   Overcast
10:20 AM 60.1 °F 55.9 °F 86% 29.90 in 10.0 mi NW 5.8 mph - N/A   Overcast
10:34 AM 61.0 °F 55.0 °F 81% 29.89 in 10.0 mi Variable 6.9 mph - N/A   Overcast
10:47 AM 62.1 °F 55.0 °F 78% 29.89 in 10.0 mi Variable 6.9 mph - N/A   Overcast
10:54 AM 63.0 °F 55.9 °F 78% 29.89 in 10.0 mi North 8.1 mph - N/A   Overcast
11:54 AM 64.9 °F 55.0 °F 70% 29.89 in 10.0 mi WNW 4.6 mph - N/A   Overcast
12:54 PM 66.0 °F 55.9 °F 70% 29.89 in 10.0 mi West 6.9 mph - N/A   Overcast
1:52 PM 66.2 °F 55.4 °F 68% 29.88 in 10.0 mi WSW 3.5 mph - N/A   Scattered Clouds
1:54 PM 66.9 °F 55.9 °F 68% 29.88 in 10.0 mi Variable 3.5 mph - N/A   Partly Cloudy
2:54 PM 70.0 °F 55.0 °F 59% 29.86 in 10.0 mi Variable 3.5 mph - N/A   Scattered Clouds
3:54 PM 70.0 °F 55.9 °F 61% 29.85 in 10.0 mi West 3.5 mph - N/A   Mostly Cloudy
4:54 PM 73.0 °F 54.0 °F 51% 29.84 in 10.0 mi SSW 6.9 mph - N/A   Partly Cloudy
5:54 PM 73.0 °F 53.1 °F 49% 29.84 in 10.0 mi WSW 6.9 mph - N/A   Scattered Clouds
6:54 PM 71.1 °F 52.0 °F 51% 29.86 in 10.0 mi WSW 10.4 mph - N/A   Clear
7:54 PM 68.0 °F 51.1 °F 55% 29.89 in 10.0 mi WSW 8.1 mph - N/A   Clear
8:54 PM 64.0 °F 48.9 °F 58% 29.92 in 10.0 mi SW 4.6 mph - N/A   Clear
9:54 PM 62.1 °F 50.0 °F 65% 29.94 in 10.0 mi SW 4.6 mph - N/A   Clear
10:54 PM 60.1 °F 50.0 °F 69% 29.95 in 10.0 mi SSW 5.8 mph - N/A   Clear
11:54 PM 59.0 °F 48.0 °F 67% 29.96 in 10.0 mi WSW 5.8 mph - N/A   Clear